• Join FlightAware (Why Join?)
  • Login
  • US Flag 
07:56PM EST


 

Airport Tracker/Info


-or-


 

Live Flight TrackerFlight Track Log ✈ SWA472 ✈ 26-Apr-2013 ✈ KONT - KSMF

Flight Track Log - Related Links

Times and Time Zones

All times are in EDT time to prevent confusion due to time zone crossing. See the SWA472 flight status page for this flight to view local times or setup timezone preferences in your user account.

Time Position Orientation Groundspeed Altitude Reporting Facility
EDT Latitude Longitude Course Direction KTS MPH feet Rate Location/Type
09:09AM 34.0333 -117.5667 301° West 211 243 2,900  Level Southern California TRACON
09:12AM 34.0844 -117.7289 291° West 279 321 9,800 3,160 Climbing Los Angeles Center
09:13AM 34.1350 -117.8186 304° West 328 377 12,800 3,639 Climbing Los Angeles Center
09:14AM 34.1894 -117.9172 304° West 353 406 17,200 3,934 Climbing Los Angeles Center
09:15AM 34.3497 -118.1826 301° West  Level FlightAware Approximate
09:15AM 34.2447 -118.0153 304° West 355 409 20,800  Level Los Angeles Center
09:16AM 34.3047 -118.1178 305° West 371 427 23,100 2,529 Climbing Los Angeles Center
09:17AM 34.3733 -118.2211 309° West 389 448 25,900 2,607 Climbing Los Angeles Center
09:18AM 34.4447 -118.3239 310° West 399 459 28,400 2,311 Climbing Los Angeles Center
09:19AM 34.5192 -118.4336 309° West 417 480 30,600 2,508 Climbing Los Angeles Center
09:20AM 34.6169 -118.5153 326° Northwest 427 491 33,500 2,705 Climbing Los Angeles Center
09:21AM 34.7175 -118.5792 332° Northwest 416 479 36,100 2,115 Climbing Los Angeles Center
09:22AM 34.8422 -118.6492 335° Northwest 411 473 37,800 934 Climbing Los Angeles Center
09:23AM 34.9394 -118.7028 336° Northwest 417 480 38,000 98 Climbing Los Angeles Center
09:24AM 35.0447 -118.7619 335° Northwest 417 480 38,000  Level Los Angeles Center
09:25AM 35.1503 -118.8200 336° Northwest 418 481 38,000  Level Los Angeles Center
09:26AM 35.2553 -118.8786 335° Northwest 416 479 38,000  Level Los Angeles Center
09:27AM 35.3589 -118.9353 336° Northwest 413 475 38,000  Level Los Angeles Center
09:28AM 35.4814 -119.0067 335° Northwest 409 471 38,000  Level Los Angeles Center
09:29AM 35.5875 -119.0669 335° Northwest 416 479 38,000  Level Los Angeles Center
09:29AM 35.6486 -119.1006 336° Northwest 415 478 38,000  Level Oakland Center
09:31AM 35.7522 -119.1597 335° Northwest 413 475 38,000  Level Oakland Center
09:32AM 35.8578 -119.2197 335° Northwest 418 481 38,000  Level Oakland Center
09:33AM 35.9625 -119.2797 335° Northwest 416 479 38,000 -99 Level Oakland Center
09:34AM 36.0675 -119.3394 335° Northwest 419 482 37,800 -590 Descending Oakland Center
09:35AM 36.1692 -119.3992 335° Northwest 408 470 36,800 -934 Descending Oakland Center
09:36AM 36.2692 -119.4553 336° Northwest 398 458 35,900 -397 Descending Oakland Center
09:37AM 36.3694 -119.5144 335° Northwest 401 461 36,000 50 Climbing Oakland Center
09:38AM 36.4703 -119.5731 335° Northwest 401 461 36,000  Level Oakland Center
09:39AM 36.5725 -119.6322 335° Northwest 405 466 36,000  Level Oakland Center
09:40AM 36.6944 -119.7053 334° Northwest 405 466 36,000  Level Oakland Center
09:41AM 36.7978 -119.7667 335° Northwest 409 471 36,000  Level Oakland Center
09:42AM 36.9000 -119.8325 333° Northwest 417 480 36,000  Level Oakland Center
09:43AM 36.9897 -119.9208 322° Northwest 411 473 36,000 -1,328 Level Oakland Center
09:44AM 37.0808 -120.0108 322° Northwest 408 470 33,300 -2,557 Descending Oakland Center
09:45AM 37.1700 -120.0994 322° Northwest 408 470 30,800 -2,380 Descending Oakland Center
09:46AM 37.2561 -120.1853 322° Northwest 403 464 28,500 -2,182 Descending Oakland Center
09:47AM 37.3369 -120.2658 322° Northwest 375 432 26,400 -2,115 Descending Oakland Center
09:48AM 37.4167 -120.3394 324° Northwest 358 412 24,200 -1,750 Descending Oakland Center
09:48AM 37.4667 -120.4000 316° Northwest 349 402 23,600 -947 Descending Northern Cal TRACON
09:49AM 37.5500 -120.4667 328° Northwest 354 407 22,700 -950 Descending Northern Cal TRACON
09:50AM 37.6167 -120.5333 322° Northwest 350 403 21,700 -955 Descending Northern Cal TRACON
09:51AM 37.6467 -120.5689 317° Northwest 350 403 21,300 -944 Descending Oakland Center
09:52AM 37.7211 -120.6447 321° Northwest 346 398 20,300 -1,043 Descending Oakland Center
09:52AM 37.7667 -120.6833 326° Northwest 337 388 19,700 -1,055 Descending Northern Cal TRACON
09:53AM 37.8500 -120.7667 322° Northwest 334 384 18,700 -1,000 Descending Northern Cal TRACON
09:54AM 37.9167 -120.8333 322° Northwest 327 376 17,700 -783 Descending Northern Cal TRACON
09:55AM 37.9372 -120.8617 313° West 324 373 17,500 -774 Descending Oakland Center
09:56AM 38.0058 -120.9317 321° Northwest 319 367 16,500 -1,082 Descending Oakland Center
09:57AM 38.0869 -121.0181 320° Northwest 316 364 15,300 -1,347 Descending Oakland Center
09:58AM 38.1667 -121.1333 311° West 316 364 13,200 -1,521 Descending Northern Cal TRACON
09:59AM 38.2167 -121.2167 307° West 304 350 11,600 -1,714 Descending Northern Cal TRACON
10:00AM 38.2833 -121.3167 310° West 296 341 9,600 -1,700 Descending Northern Cal TRACON
10:01AM 38.3333 -121.3833 314° West 296 341 8,200 -1,684 Descending Northern Cal TRACON
10:02AM 38.3833 -121.4500 314° West 285 328 6,400 -1,600 Descending Northern Cal TRACON
10:03AM 38.4500 -121.5000 330° Northwest 260 299 5,000 -1,095 Descending Northern Cal TRACON
10:04AM 38.5000 -121.5333 332° Northwest 206 237 4,100 -950 Descending Northern Cal TRACON
10:05AM 38.5500 -121.5667 332° Northwest 181 208 3,100 -1,158 Descending Northern Cal TRACON
10:06AM 38.5833 -121.6000 322° Northwest 177 204 1,900 -950 Descending Northern Cal TRACON
10:07AM 38.6167 -121.6000 360° North 134 154 1,200 -714 Descending Northern Cal TRACON
10:08AM 38.6667 -121.6000 360° North 130 150 400 -727 Descending Northern Cal TRACON
10:11AM 38.6833 -121.5833 46° Northeast  Level FlightAware Approximate
10:18AM 38.6954 -121.5908 46° Northeast  Level Estimated